User: anonymous   Login
Location: Unspecified
(0.0000°N, 0.0000°E)
Time: 23:04:35
(UTC+00:00)
Language:

TBA - TO BE ASSIGNED - Orbit

View from above orbital plane
View from above orbital plane
View from above satellite
View from above satellite

Ground track
Ground track

The orbit is defined by the following mean orbital elements,

1 68473U          26145.37797999 +.00000000 +00000-0 +68009-3 0 00005
2 68473  97.4535 104.2265 0008242 207.5517 152.5283 15.21267219    08
Epoch (UTC): 25 May 2026 09:04:17
Eccentricity: 0.0008242
inclination: 97.4535°
perigee height: 496 km
apogee height: 508 km
right ascension of ascending node: 104.2265°
argument of perigee: 207.5517°
revolutions per day: 15.21267219
mean anomaly at epoch: 152.5283°

The dashed part of the orbit path shows where the satellite is in the earth's shadow,  

DLR